Regional Weather Roundup
Issued by NWS Kansas City/Pleasant Hill, MO

Home | Current Version | Previous Version | Text Only | Print | Product List | Glossary On
Versions: 1 2 3 4 5 6 7 8 9 10 11 12 13 14 15 16 17 18 19 20 21 22 23 24 25 26 27 28 29 30 31 32 33 34 35 36 37 38 39 40 41 42 43 44 45 46 47 48 49 50
000
ASUS43 KEAX 241211
RWREAX

WEATHER ROUNDUP FOR EASTERN KANSAS AND NORTHWEST MISSOURI
NATIONAL WEATHER SERVICE KANSAS CITY/PLEASANT HILL MO
700 AM CDT FRI OCT 24 2014

KSZ040-057-103>105-MOZ028-029-037-043-241300-
...KANSAS CITY METROPOLITAN AREA...

CITY           SKY/WX    TMP DP  RH WIND       PRES   REMARKS
K.C. INTL      FOG       57  57 100 S8        30.05S VSB 1/2
6HR MIN TEMP:  54; 6HR MAX TEMP:  57;

K.C. DOWNTOWN  FOG       55  53  93 CALM      30.05F VSB 1
6HR MIN TEMP:  55; 6HR MAX TEMP:  59;

LEES SUMMIT    FOG       55  54  96 S5        30.07R VSB 1
6HR MIN TEMP:  54; 6HR MAX TEMP:  57;

OLATHE - IXD   PTCLDY    53  53 100 S6        30.07R FOG
6HR MIN TEMP:  53; 6HR MAX TEMP:  56;

OLATHE - OJC   FOG       54  54 100 S6        30.06R VSB 1/2
6HR MIN TEMP:  54; 6HR MAX TEMP:  57;

LAWRENCE       FOG       53  52  96 SE6       30.04F VSB 3/4

$$

MOZ001>008-011>017-020>025-030>033-038>040-044>046-053-054-241300-
...NORTHERN AND CENTRAL MISSOURI...

CITY           SKY/WX    TMP DP  RH WIND       PRES   REMARKS
ST. JOSEPH     CLOUDY    57  57 100 S7        30.03F FOG
6HR MIN TEMP:  50; 6HR MAX TEMP:  57;

MOSBY          FOG       55  55 100 CALM      30.06S VSB 3/4
WHITEMAN AFB   CLOUDY    56  55  95 SW7       30.08S
6HR MIN TEMP:  56; 6HR MAX TEMP:  60;

CLINTON        FOG       52  52 100 CALM      30.10R VSB<1/4
SEDALIA        CLOUDY    59  56  89 SW6       30.10S FOG
6HR MIN TEMP:  59; 6HR MAX TEMP:  62;

WARSAW         NOT AVBL
MARSHALL       CLOUDY    61  59  94 S3        30.09S FOG
CHILLICOTHE      N/A     57  56  96 S6        30.07S
6HR MIN TEMP:  55; 6HR MAX TEMP:  57;

MOBERLY        FOG       55  52  88 SW3       30.09R VSB 1/4
KIRKSVILLE     FOG       55  55 100 S5        30.06F VSB 1/4
6HR MIN TEMP:  55; 6HR MAX TEMP:  57;


$$

MOZ041-047>049-056>058-063>065-088>090-097-241300-
...EASTERN AND SOUTHERN MISSOURI...

CITY           SKY/WX    TMP DP  RH WIND       PRES   REMARKS
ST. LOUIS INTL MOCLDY    54  49  83 W6        30.10S
6HR MIN TEMP:  51; 6HR MAX TEMP:  60;

SPIRIT OF STL  MOCLDY    50  49  96 CALM      30.10R
COLUMBIA       CLOUDY    54  53  97 SW6       30.10R FOG
JEFFERSON CITY CLOUDY    46  45  96 CALM      30.10S FOG
MEXICO         FOG      N/A N/A N/A CALM      30.09S VSB<1/4
HANNIBAL       FOG       54  52  94 CALM      30.08S VSB 1/4
ROLLA          PTCLDY    49  47  93 SW8       30.09F FOG
LEBANON        FOG       55  54  94 CALM      30.12S VSB<1/4
OSAGE BEACH    CLOUDY    57  55  94 CALM      30.11S
SPRINGFIELD    CLEAR     48  46  93 S6        30.10F
BRANSON        PTCLDY    46  46 100 SW3       30.14S
NEVADA         CLEAR     52  52 100 S8        30.10S
JOPLIN         CLEAR     52  50  93 S8        30.10F
WEST PLAINS    MOCLDY    44  42  93 CALM      30.14R

$$

IAZ060-094-KSZ022-034>040-054-083-096-NEZ052-066-093-241300-
...KANSAS...SOUTHEAST NEBRASKA AND IOWA...

CITY           SKY/WX    TMP DP  RH WIND       PRES   REMARKS
TOPEKA         MOCLDY    58  57  97 S3        30.03F FOG
6HR MIN TEMP:  57; 6HR MAX TEMP:  60;

MANHATTAN      PTCLDY    57  56  96 SW3       30.02F FOG
EMPORIA        MOCLDY    56  56 100 S8        30.05S FOG
CHANUTE        CLOUDY    57  55  93 S8        30.08S
WICHITA        MOCLDY    56  53  90 S5        30.05S FOG
OMAHA          FOG       57  55  93 S13       29.94F VSB 3/4
LINCOLN        MOCLDY    60  57  89 SW12      29.95F FOG
FALLS CITY     MOCLDY    59  57  93 S8        30.00F FOG
LAMONI         FOG       57  56  96 SW9       30.02F VSB 1/4
DES MOINES     FOG       59  57  93 S10       29.98F VSB 1/8

$$




USA.gov is the U.S. government's official web portal to all federal, state and local government web resources and services.